Probability
0 0 0 0 0 0 0 0 0 0 0 0 0 0 0 0 0 0 0 0 0 0 0 0 0 0 0 0 0 0 0 0 0 0 0 0 0 0 0 0 0 0 0 0
0 0 0 0 0 0 0 0 0 0 0 0 0 0 0 0 0 0 0 0 0 0 0 0 0 0 0 0 0 0 0 0 0 0 0 0 0 0 0 0 0 0 0 0
0 0 0 0 0 0 0 0 0 0 0 0 0 0 0 0 0 0 0 0 0 0 0 0 0 0 0 0 0 0 0 0 0 0 0 0 0 0 0 0 0 0 0 0
0 0 0 0 0 0 0 0 0 0 0 0 0 0 0 0 0 0 0 0 0 0 0 0 0 0 0 0 0 0 0 0 0 0 0 0 0 0 0 0 0 0 0 0
0 0 0 0 0 0 0 0 0 0 0 0 0 0 0 0 0 0 0 0 0 0 0 0 0 0 0 0 0 0 0 0 0 0 0 0 0 0 0 0 0 0 0 0
0 0 0 0 0 0 0 0 0 0 0 0 0 0 0 0 0 0 0 0 0 0 0 0 0 0 0 0 0 0 0 0 0 0 0 0 0 0 0 0 0 0 0 0
0 0 0 0 0 0 0 0 0 0 0 0 0 0 0 0 0 0 0 0 0 0 0 0 0 0 0 0 0 0 0 0 0 0 0 0 0 0 0 0 0 0 0 0
0 0 0 0 0 0 0 0 0 0 0 0 0 0 0 0 0 0 0 0 0 0 0 0 0 0 0 0 0 0 0 0 0 0 0 0 0 0 0 0 0 0 0 0
0 0 0 0 0 0 0 0 0 0 0 0 0 0 0 0 0 0 0 0 0 0 0 0 0 0 0 0 0 0 0 0 0 0 0 0 0 0 0 0 0 0 0 0
0 0 0 0 0 0 0 0 0 0 0 0 0 0 0 0 0 0 0 0 0 0 0 0 0 0 0 0 0 0 0 0 0 0 0 0 0 0 0 0 0 0 0 0
0 0 0 0 0 0 0 0 0 0 0 0 0 0 0 0 0 0 0 0 0 0 0 0 0 0 0 0 0 0 0 0 0 0 0 0 0 0 0 0 0 0 0 0
0 0 0 0 0 0 0 0 0 0 0 0 0 0 0 0 0 0 0 0 0 0 0 0 0 0 0 0 0 0 0 0 0 0 0 0 0 0 0 0 0 0 0 0
0 0 0 0 0 0 0 0 0 0 0 0 0 0 0 0 0 0 0 0 0 0 0 0 0 0 0 0 0 0 0 0 0 0 0 0 0 0 0 0 0 0 0 0
0 0 0 0 0 0 0 0 0 0 0 0 0 0 0 0 0 0 0 0 0 0 0 0 0 0 0 0 0 0 0 0 0 0 0 0 0 0 0 0 0 0 0 0
0 0 0 0 0 0 0 0 0 0 0 0 0 0 0 0 0 0 0 0 0 0 0 0 0 0 0 0 0 0 0 0 0 0 0 0 0 0 0 0 0 0 0 0
0 0 0 0 0 0 0 0 0 0 0 0 0 0 0 0 0 0 0 0 0 0 0 0 0 0 0 0 0 0 0 0 0 0 0 0 0 0 0 0 0 0 0 0
0 0 0 0 0 0 0 0 0 0 0 0 0 0 0 0 0 0 0 0 0 0 0 0 0 0 0 0 0 0 0 0 0 0 0 0 0 0 0 0 0 0 0 0
0 0 0 0 0 0 0 0 0 0 0 0 0 0 0 0 0 0 0 0 0 0 0 0 0 0 0 0 0 0 0 0 0 0 0 0 0 0 0 0 0 0 0 0
0 0 0 0 0 0 0 0 0 0 0 0 0 0 0 0 0 0 0 0 0 0 0 0 0 0 0 0 0 0 0 0 0 0 0 0 0 0 0 0 0 0 0 0
0 0 0 0 0 0 0 0 0 0 0 0 0 0 0 0 0 0 0 0 0 0 0 0 0 0 0 0 0 0 0 0 0 0 0 0 0 0 0 0 0 0 0 0
0 0 0 0 0 0 0 0 0 0 0 0 0 0 0 0 0 0 0 0 0 0 0 0 0 0 0 0 0 0 0 0 0 0 0 0 0 0 0 0 0 0 0 0
0 0 0 0 0 0 0 0 0 0 0 0 0 0 0 0 0 0 0 0 0 0 0 0 0 0 0 0 0 0 0 0 0 0 0 0 0 0 0 0 0 0 0 0
0 0 0 0 0 0 0 0 0 0 0 0 0 0 0 0 0 0 0 0 0 0 0 0 0 0 0 0 0 0 0 0 0 0 0 0 0 0 0 0 0 0 0 0
0 0 0 0 0 0 0 0 0 0 0 0 0 0 0 0 0 0 0 0 0 0 0 0 0 0 0 0 0 0 0 0 0 0 0 0 0 0 0 0 0 0 0 0
0 0 0 0 0 0 0 0 0 0 0 0 0 0 0 0 0 0 0 0 0 0 0 0 0 0 0 0 0 0 0 0 0 0 0 0 0 0 0 0 0 0 0 0
0 0 0 0 0 0 0 0 0 0 0 0 0 0 0 0 0 0 0 0 0 0 0 0 0 0 0 0 0 0 0 0 0 0 0 0 0 0 0 0 0 0 0 0
0 0 0 0 0 0 0 0 0 0 0 0 0 0 0 0 0 0 0 0 0 0 0 0 0 0 0 0 0 0 0 0 0 0 0 0 0 0 0 0 0 0 0 0
Wind_Speed
9 2 2 4 7 9 10 9 7 5 4 3 4 4 2 2 3 2 3 5 5 5 5 5 5 4 3 1 3 2 2 2 2 2 2 1 2 3 3 4 6 5 5 5
10 5 6 9 9 11 11 10 9 6 4 3 3 1 1 1 3 2 3 3 4 5 5 5 5 5 5 4 4 3 3 3 2 1 2 2 3 3 3 4 5 4 4 4
10 9 7 10 14 14 11 9 7 6 1 5 2 3 3 4 2 1 1 2 3 3 2 2 3 3 3 2 3 2 3 3 2 2 0 2 3 3 4 4 4 3 4 4
9 7 8 3 1 9 11 9 6 4 1 2 1 3 3 2 0 1 1 2 2 2 3 4 4 4 3 4 4 5 4 3 3 3 3 3 3 4 4 3 3 3 4 4
8 9 9 5 5 6 8 8 9 7 5 3 3 3 5 5 3 2 2 2 2 1 2 3 3 2 2 3 4 3 3 3 2 3 3 3 4 4 4 3 3 4 4 4
6 7 8 2 11 8 5 5 9 9 7 5 4 3 5 5 4 3 3 2 2 0 2 1 1 1 2 4 3 2 1 2 2 2 3 4 4 5 4 3 4 4 5 5
9 8 5 9 11 9 5 4 10 9 6 5 2 6 6 6 5 4 3 2 1 1 1 1 2 2 3 4 3 1 1 1 1 3 4 5 5 4 4 4 4 5 5 5
8 9 6 11 9 6 2 5 7 7 5 4 7 8 7 6 5 3 3 2 1 1 1 1 1 2 3 4 4 3 1 1 3 4 5 5 5 5 5 5 5 6 6 6
6 2 6 6 4 4 3 4 6 6 6 5 5 6 7 6 5 4 3 3 2 1 1 2 1 1 2 4 5 4 4 4 5 6 6 6 6 6 5 5 5 5 5 4
4 5 9 6 5 5 2 1 5 6 5 5 5 7 7 6 5 4 4 4 3 3 3 3 4 4 4 5 5 6 6 6 5 5 5 5 5 5 5 5 5 4 4 4
8 6 4 7 7 8 6 5 5 5 4 4 6 7 7 7 5 4 4 4 4 4 4 5 6 7 7 7 7 7 6 6 6 5 5 5 5 4 5 6 6 6 5 4
6 7 8 10 12 11 10 9 8 7 6 5 6 7 8 7 5 5 5 5 5 6 6 7 7 8 8 8 8 8 7 7 5 5 5 5 5 5 8 8 10 12 11 8
9 6 2 4 13 13 11 10 9 9 9 7 6 7 9 7 5 6 6 6 6 6 6 7 7 8 8 8 8 7 7 6 5 6 6 6 6 6 6 7 9 11 11 12
6 6 6 5 7 9 10 10 9 9 10 9 8 8 9 8 7 6 6 6 5 5 6 6 7 7 7 8 8 7 6 6 7 6 6 6 6 6 6 6 5 5 8 13
6 7 7 7 9 10 9 10 11 10 10 10 8 8 9 8 7 6 6 5 5 6 6 6 6 6 6 7 8 8 6 4 5 6 6 6 6 6 6 7 6 5 5 4
8 7 7 10 12 13 13 13 13 12 12 11 9 8 9 9 7 6 5 5 5 5 5 5 5 5 5 7 7 6 5 8 8 6 5 6 7 7 7 7 7 7 7 6
11 12 12 12 14 15 15 14 13 13 12 12 11 10 10 9 7 6 6 5 6 5 5 5 5 5 5 7 7 5 5 6 10 6 6 6 7 7 7 7 8 8 8 10
14 14 14 14 13 13 14 13 12 13 13 12 12 10 9 9 8 6 5 5 6 6 5 4 4 5 5 6 6 5 5 5 5 5 5 5 6 6 6 7 8 9 8 10
10 10 10 12 13 13 13 12 12 13 13 12 11 9 8 8 7 6 5 5 4 4 4 4 5 4 4 7 9 5 5 5 5 4 4 6 6 5 6 6 6 7 7 8
3 5 8 10 12 12 11 12 13 12 12 11 11 10 9 8 7 6 6 5 4 3 3 3 4 4 4 6 10 5 5 5 5 4 4 4 5 5 5 5 6 6 6 6
2 6 9 11 11 11 12 13 12 12 11 10 10 9 8 7 6 5 4 4 5 3 2 3 1 2 4 7 10 6 5 5 4 4 4 4 5 5 5 5 5 5 5 5
4 7 10 11 12 11 11 11 11 11 10 9 9 9 8 6 6 4 4 3 4 4 1 2 1 3 6 9 6 6 6 5 4 4 4 4 4 5 5 5 5 5 4 5
6 8 10 11 11 11 11 11 11 10 9 8 8 7 6 5 4 3 4 3 4 4 1 1 1 4 9 6 6 6 6 5 4 4 4 4 5 5 5 6 5 5 5 5
7 9 9 10 11 11 11 11 10 8 7 7 6 6 5 4 3 2 3 5 5 4 2 2 4 7 8 5 5 6 5 5 4 4 4 5 5 5 5 5 5 5 5 7
8 9 10 10 10 8 9 10 9 8 7 5 6 5 4 3 3 2 2 2 4 4 3 4 7 8 6 5 5 5 4 4 5 5 5 6 5 6 6 6 6 6 6 6
6 6 6 6 6 5 6 7 6 6 5 4 4 4 4 3 3 3 2 2 3 4 3 3 4 5 4 4 4 4 5 5 6 5 6 6 7 7 6 6 9 7 7 7
6 5 4 4 4 4 5 5 5 5 5 5 4 4 4 3 3 3 2 2 2 2 2 2 3 3 3 4 4 4 5 5 5 5 6 6 6 6 7 9 8 8 8 9
Wind_Direction
274 183 234 235 197 197 225 248 272 339 18 13 66 87 114 155 170 178 186 173 180 183 198 198 202 218 259 162 148 184 211 242 251 287 305 321 314 312 321 326 326 335 341 335
274 241 232 250 237 212 215 238 261 289 296 84 77 106 135 152 139 170 189 180 177 186 202 207 199 199 220 206 181 183 202 221 206 214 318 341 314 319 321 312 302 312 323 324
270 241 219 247 230 220 214 214 229 248 179 90 62 51 39 36 36 342 114 136 159 186 203 221 228 207 214 144 132 191 220 212 175 166 235 294 301 304 291 283 287 300 297 303
264 238 227 252 122 191 200 208 208 231 135 120 120 123 137 143 103 345 51 117 150 175 195 209 229 216 193 173 201 213 209 185 171 177 203 234 256 268 272 273 291 295 289 286
255 260 255 200 170 176 182 205 199 203 197 168 153 167 151 119 94 64 54 71 101 153 235 219 232 246 238 222 218 210 178 162 193 205 209 221 246 263 269 270 275 280 284 279
256 257 265 241 145 150 174 227 184 181 179 168 187 210 123 107 97 83 68 51 49 43 289 315 345 344 322 305 298 275 186 172 190 208 230 236 241 250 260 266 264 269 273 266
257 264 265 107 121 140 195 232 156 162 160 167 152 92 110 106 94 87 88 65 33 320 321 6 350 321 290 288 303 327 98 127 226 240 244 242 239 241 252 260 263 265 273 269
219 238 236 138 150 175 127 101 125 138 138 127 103 106 110 104 94 86 93 84 38 330 321 3 344 309 304 317 334 349 347 244 246 249 253 258 237 232 236 249 261 263 263 265
208 187 99 144 144 98 79 145 132 129 119 121 128 126 119 110 100 84 75 71 45 5 358 3 16 9 332 335 339 329 305 270 252 247 243 240 237 234 232 233 240 250 253 257
249 162 173 184 141 145 171 145 111 117 130 151 145 129 122 114 104 89 69 59 43 36 33 23 25 39 25 356 340 327 311 298 285 276 268 254 238 228 228 231 237 245 251 255
238 245 178 177 185 177 175 170 146 145 150 147 130 124 119 110 98 88 77 66 55 46 37 29 27 30 21 4 352 336 322 315 312 303 296 289 275 248 237 231 226 229 236 240
219 232 216 196 189 183 177 179 169 158 145 133 130 126 115 105 99 90 79 67 57 47 40 37 37 34 22 6 358 348 338 334 330 325 319 312 302 295 266 256 256 245 238 238
238 252 299 154 164 170 175 176 168 159 149 140 126 122 119 116 111 101 88 74 63 55 44 41 40 32 15 1 353 344 336 341 340 332 326 320 315 309 305 292 271 263 255 249
201 135 119 125 145 163 171 166 158 149 144 140 133 126 123 120 111 100 92 86 74 64 53 48 42 30 9 358 351 342 342 354 351 331 323 318 316 313 309 306 304 293 263 249
171 166 164 158 159 171 164 158 159 155 148 141 138 136 133 127 119 109 98 92 84 70 55 48 40 22 6 3 352 342 343 350 340 323 318 323 326 323 320 318 316 313 314 297
196 187 180 172 173 175 172 173 171 164 156 149 146 140 130 121 117 113 105 95 89 76 57 48 34 10 11 13 351 338 333 348 348 333 339 349 347 341 341 342 342 341 340 345
199 196 194 189 184 183 182 181 174 163 157 153 147 139 134 133 131 126 122 113 102 90 70 53 26 359 19 24 352 337 337 347 352 351 354 357 349 345 349 351 352 351 348 348
214 202 196 193 187 182 182 178 168 158 155 148 144 146 148 145 137 131 126 121 114 102 79 55 18 349 17 32 354 334 338 347 347 350 350 353 346 347 354 355 354 355 350 353
215 194 186 182 179 176 175 168 156 149 144 145 149 148 142 135 133 133 126 114 106 99 82 46 353 357 18 27 0 330 335 341 342 344 345 346 347 347 348 350 350 351 352 355
170 155 160 162 162 162 158 149 145 142 145 150 147 142 139 138 140 140 134 124 106 82 58 29 350 10 11 8 350 323 326 330 333 334 336 337 336 338 340 343 345 345 348 350
126 136 140 141 142 142 143 144 143 145 146 147 146 145 142 140 144 143 140 134 116 88 5 312 324 30 19 350 329 314 315 317 319 321 324 324 324 325 326 331 334 335 338 340
120 128 133 136 138 140 142 143 144 144 143 145 144 142 141 147 151 143 132 129 127 132 260 304 43 34 353 338 312 304 303 305 309 312 313 314 314 314 314 317 317 319 322 322
140 138 141 143 146 146 145 145 146 146 146 146 145 148 152 147 146 152 154 142 129 129 243 315 8 331 327 321 302 300 300 304 310 312 312 313 312 310 307 307 304 304 303 301
152 151 151 152 153 152 151 148 143 143 145 144 146 147 144 142 158 164 134 133 145 157 240 263 276 288 297 288 285 290 297 304 308 309 313 308 299 295 294 294 296 295 294 298
159 159 161 161 158 154 149 144 141 144 147 146 152 156 164 158 148 134 115 133 158 188 244 269 278 279 272 271 278 289 302 305 306 306 296 292 294 298 298 299 299 297 295 293
157 154 152 156 150 147 148 149 151 153 157 159 164 164 166 153 150 152 179 222 236 233 242 256 266 270 273 286 299 306 305 307 307 304 303 307 306 306 305 306 307 304 300 299
149 139 137 150 143 147 150 153 156 163 167 165 166 166 167 162 163 176 195 223 258 270 276 284 291 297 302 304 305 305 305 304 303 305 307 308 308 308 308 309 307 305 303 301